Current Version              Previous Version:    01  02  03  04  05  06  07  08  09  10  11  12  13  14  15  16  17  18  19  20  21  22  23  24  25  26  27  28  29  30  
   31  32  33  34  35  36  37  38  39  40  41  42  43  44  45  46  47  48  49  50  51  52  53  54  55  56  57  58  59  60  

[Printable]
044
ASUS44 KFWD 230615
RWRTX
NORTH TEXAS HOURLY WEATHER ROUNDUP
NATIONAL WEATHER SERVICE FORT WORTH TX
100 AM CDT THU OCT 23 2014

NOTE: "FAIR" INDICATES FEW OR NO CLOUDS BELOW 12,000 FEET WITH NO
SIGNIFICANT WEATHER AND/OR OBSTRUCTIONS TO VISIBILITY.

TXZ118-119-230700-
DALLAS/FORT WORTH METROPLEX

CITY           SKY/WX    TMP DP  RH WIND       PRES   REMARKS
DFW AIRPORT    CLOUDY    70  52  52 SE12      30.10S
6HR MIN TEMP:  69; 6HR MAX TEMP:  76;

DALLAS LOVE    CLOUDY    70  53  54 SE8       30.10S
6HR MIN TEMP:  70; 6HR MAX TEMP:  76;

FTW MEACHAM    CLOUDY    71  55  56 SE5       30.10S
6HR MIN TEMP:  71; 6HR MAX TEMP:  76;

DAL-EXECUTIVE  CLOUDY    68  53  58 SE9       30.10S
6HR MIN TEMP:  68; 6HR MAX TEMP:  75;

FTW-ALLIANCE   LGT RAIN  67  56  67 SE7       30.10S
6HR MIN TEMP:  67; 6HR MAX TEMP:  75; 6HR PCP: TRACE;

FTW-NAS-JRB    CLOUDY    76  53  44 SE7       30.15R
6HR MIN TEMP:  76; 6HR MAX TEMP:  81;

FTW-SPINKS     CLOUDY    68  55  61 SE5       30.12R
6HR MIN TEMP:  67; 6HR MAX TEMP:  73;

ARLINGTON      CLOUDY    70  54  56 SE10      30.11S
6HR MIN TEMP:  70; 6HR MAX TEMP:  76;

GRAND PRAIRIE  CLOUDY    69  56  63 SE7       30.12R
6HR MIN TEMP:  69; 6HR MAX TEMP:  76;

ADDISON        CLOUDY    70  55  59 SE9       30.12S
6HR MIN TEMP:  70; 6HR MAX TEMP:  76;

MESQUITE       CLOUDY    66  52  60 E5        30.10F
6HR MIN TEMP:  66; 6HR MAX TEMP:  73;

LANCASTER      CLOUDY    65  53  63 SE5       30.11S
6HR MIN TEMP:  65; 6HR MAX TEMP:  74;

$$

TXZ091>094-102>105-117-120-121-131>134-230700-
NORTH CENTRAL TEXAS

CITY           SKY/WX    TMP DP  RH WIND       PRES   REMARKS
SHRMAN/DENISON CLOUDY    66  56  70 E8        30.13S
6HR MIN TEMP:  66; 6HR MAX TEMP:  72;

GAINESVILLE    CLOUDY    65  55  70 SE7       30.13S
6HR MIN TEMP:  65; 6HR MAX TEMP:  72;

BOWIE          CLOUDY    65  59  78 SE3       30.11S
6HR MIN TEMP:  65; 6HR MAX TEMP:  71;

BRIDGEPORT     CLOUDY    67  61  80 SE3       30.12S
6HR MIN TEMP:  67; 6HR MAX TEMP:  74;

DECATUR        CLOUDY    67  56  68 SE6       30.11S
6HR MIN TEMP:  67; 6HR MAX TEMP:  73;

DENTON         CLOUDY    67  59  75 SE5       30.10F
6HR MIN TEMP:  66; 6HR MAX TEMP:  75; 6HR PCP:  0.01;

MCKINNEY       CLOUDY    61  54  77 SE6       30.11F
6HR MIN TEMP:  61; 6HR MAX TEMP:  73;

GREENVILLE     CLOUDY    63  52  67 E3        30.12F
ROCKWALL       CLOUDY    65  53  64 SE7       30.10S
6HR MIN TEMP:  65; 6HR MAX TEMP:  72;

TERRELL        CLOUDY    66  54  65 E5        30.11F
6HR MIN TEMP:  66; 6HR MAX TEMP:  72;

WAXAHACHIE     CLOUDY    65  57  75 CALM      30.12R
6HR MIN TEMP:  65; 6HR MAX TEMP:  72;

CLEBURNE       CLOUDY    68  57  68 SE7       30.12S
GRANBURY       CLOUDY    70  56  61 SE5       30.11S
6HR MIN TEMP:  70; 6HR MAX TEMP:  77;

$$

TXZ083>090-098>101-113>116-127>130-139>142-154-155-230700-
WESTERN NORTH TEXAS

CITY           SKY/WX    TMP DP  RH WIND       PRES   REMARKS
WICHITA FALLS  CLOUDY    64  62  93 NE3       30.09F
6HR MIN TEMP:  63; 6HR MAX TEMP:  71; 6HR PCP: TRACE;

WF-KICKAPOO    CLOUDY    66  60  80 CALM      30.10F
6HR MIN TEMP:  65; 6HR MAX TEMP:  73;

VERNON         CLOUDY    63  61  94 CALM      30.10F
ABILENE        CLEAR     60  55  83 S3        30.11S
6HR MIN TEMP:  59; 6HR MAX TEMP:  70;

ABILENE-DYESS  PTCLDY    59  55  87 NW2       30.10S
6HR MIN TEMP:  58; 6HR MAX TEMP:  68;

BRECKENRIDGE   PTCLDY    66  59  77 SE8       30.09S
6HR MIN TEMP:  66; 6HR MAX TEMP:  72;

GRAHAM         PTCLDY    67  60  78 SE5       30.09R
6HR MIN TEMP:  66; 6HR MAX TEMP:  72;

MINERAL WELLS  CLOUDY    66  59  78 SE7       30.08F
6HR MIN TEMP:  66; 6HR MAX TEMP:  74; 6HR PCP: TRACE;

STEPHENVILLE   CLOUDY    67  55  65 SE3       30.13F
6HR MIN TEMP:  67; 6HR MAX TEMP:  73;

COMANCHE       CLOUDY    66  60  79 SE3       30.11S
6HR MIN TEMP:  66; 6HR MAX TEMP:  73;

BROWNWOOD      MOCLDY    64  59  82 CALM      30.11S
COLEMAN        PTCLDY    63  60  91 S5        30.11S
6HR MIN TEMP:  63; 6HR MAX TEMP:  67;

BRADY          PTCLDY    66  52  59 E5        30.12S
$$

TXZ143>147-156>162-174-175-230700-
CENTRAL TEXAS

CITY           SKY/WX    TMP DP  RH WIND       PRES   REMARKS
WACO           CLOUDY    66  58  75 SE5       30.09F
6HR MIN TEMP:  66; 6HR MAX TEMP:  74;

WACO-MCGREGOR  CLOUDY    66  54  63 E6        30.10F
6HR MIN TEMP:  66; 6HR MAX TEMP:  75;

HILLSBORO      CLOUDY    67  55  65 E8        30.11R
6HR MIN TEMP:  67; 6HR MAX TEMP:  74;

CORSICANA      CLOUDY    66  55  67 E3        30.12S
6HR MIN TEMP:  66; 6HR MAX TEMP:  72;

MEXIA          CLOUDY    65  56  71 E5        30.11R
6HR MIN TEMP:  65; 6HR MAX TEMP:  71;

HEARNE         CLOUDY    67  58  72 CALM      30.10F
6HR MIN TEMP:  67; 6HR MAX TEMP:  74;

CAMERON        CLOUDY    67  59  76 CALM      30.09S
6HR MIN TEMP:  67; 6HR MAX TEMP:  74;

TEMPLE         CLOUDY    66  54  63 E7        30.09F
6HR MIN TEMP:  66; 6HR MAX TEMP:  73;

KILLEEN        MOCLDY    70  57  64 SE9       30.10S
KILLEEN-SKYLRK CLOUDY    70  54  56 E9        30.08F
6HR MIN TEMP:  70; 6HR MAX TEMP:  73;

FORT HOOD      CLOUDY    71  58  63 SE3       30.11S
6HR MIN TEMP:  71; 6HR MAX TEMP:  76;

GATESVILLE     CLOUDY    66  59  77 SE3       30.12S
HAMILTON       CLOUDY    69  57  65 MISG      30.12S
6HR MIN TEMP:  69; 6HR MAX TEMP:  73;

LAMPASAS       CLOUDY    68  62  80 E3        30.09F
6HR MIN TEMP:  68; 6HR MAX TEMP:  73;

$$

TXZ095>097-106>112-122>126-135>138-148>153-164>167-230700-
EAST TEXAS

CITY           SKY/WX    TMP DP  RH WIND       PRES   REMARKS
PARIS          CLOUDY    61  48  63 SE7       30.14S
6HR MIN TEMP:  61; 6HR MAX TEMP:  66;

SULPHUR SPRNGS CLOUDY    64  53  68 SE8       30.15R
6HR MIN TEMP:  62; 6HR MAX TEMP:  72;

MOUNT PLEASANT CLOUDY    61  53  73 E6        30.15S
6HR MIN TEMP:  60; 6HR MAX TEMP:  68;

MINEOLA        CLOUDY    61  55  82 CALM      30.13F
TYLER          CLOUDY    66  51  58 E9        30.12F
6HR MIN TEMP:  64; 6HR MAX TEMP:  72;

LONGVIEW       CLOUDY    59  53  80 NE3       30.12F
6HR MIN TEMP:  59; 6HR MAX TEMP:  68;

MARSHALL       CLOUDY    61  55  78 E3        30.15S
6HR MIN TEMP:  58; 6HR MAX TEMP:  68;

ATHENS         CLOUDY    61  54  77 CALM      30.11S
PALESTINE      CLOUDY    65  54  66 E3        30.12F
JACKSONVILLE   CLOUDY    62  53  72 E3        30.14S
HENDERSON      CLOUDY    61  53  74 E3        30.13F
6HR MIN TEMP:  58; 6HR MAX TEMP:  65;

NACOGDOCHES    MOCLDY    61  52  72 E5        30.12S
6HR MIN TEMP:  55; 6HR MAX TEMP:  64;

LUFKIN         PTCLDY    63  54  72 NE5       30.11R
6HR MIN TEMP:  60; 6HR MAX TEMP:  71;

$$

SUPPLEMENTAL OBSERVATIONS (CENTRAL)

CITY           SKY/WX    TMP DP  RH WIND       PRES   REMARKS
LAKE TEXOMA      N/A     64  54  68 SE5         N/A
CADDO GRASSLND   N/A     63  50  63 SE5         N/A
PAT MAYSE LAKE   N/A     63  52  67 E5          N/A
GREENVILLE       N/A     64  52  63 SE5         N/A
CEDAR HILL       N/A     68  54  60 SE5G13      N/A
LAKE LIMESTONE   N/A     64  55  72 E5          N/A
MCGREGOR         N/A     68  55  64 SE7         N/A
$$

SUPPLEMENTAL OBSERVATIONS (WEST)